Location: Härggis
(46.9540°N, 8.4897°E)
Time: 22:39:45
(UTC+00:00)

Lacrosse 5 rocket - Pass Details

Date: 27 May 2022
Orbit: 456 x 629 km, 57.0° (Epoch: 02 July)

Event Time Altitude Azimuth Distance (km) Brightness Sun altitude
Exits shadow 01:16:10 38° 183° (S) 791 1.6 -17.2°
Maximum altitude 01:17:14 51° 135° (SE) 657 1.5 -17.1°
Drops below altitude 10° 01:21:10 10° 59° (ENE) 1,798 4.8 -16.8°
Sets 01:23:29 0° 55° (NE) 2,727 6.1 -16.6°
